Flag for Canada Weather past 2 weeks in Gatineau, Quebec, Canada

Now
46 °F

Passing clouds.


Feels Like: 45 °F
Forecast: 42 / 60 °F
Wind: 3 mph from Southwest

Location: Ottawa Int'L. Ont.

Current Time: Oct 24, 2014 at 3:28:31 AM

Latest Report: Oct 24, 2014 at 2:00 AM


Visibility: 15 mi

Pressure: 29.94 "Hg

Humidity: 93%

Dew point: 45 °F

Location of GatineauLocation

Historic Weather in Gatineau — Graph

°F

Gatineau temperature yesterday

Maximum temperature yesterday: 55 °F (at 1:00 PM)
Minimum temperature yesterday: 41 °F (at 7:00 AM)
Average temperature yesterday: 48 °F

Past Weeks' High & Low Weather Summary

 TemperatureHumidityPressure
High77 °F (Oct 14, 1:00 PM)100% (Oct 10, 6:00 AM)30.30 "Hg (Oct 10, 6:00 AM)
Low28 °F (Oct 20, 3:00 AM)41% (Oct 12, 2:00 PM)29.44 "Hg (Oct 18, 4:00 AM)
Average50 °F81%29.95 "Hg
* Reported Oct 9 2:00 AM — Oct 24 2:00 AM, Gatineau, Weather by CustomWeather, © 2014

Note: Actual official high and low records may vary slightly from our data, if they occured in-between our weather recording intervals... More about our weather records

Advertising

Gatineau weather history for previous 24 hours

 ConditionsComfort  
Time TempWeatherWind HumidityBarometerVisibility
2:00 AM
Oct 24
46 °FPassing clouds.3 mph93%29.94 "Hg15 mi
1:00 AM46 °FPartly cloudy.5 mph100%29.95 "Hg15 mi
12:00 AM48 °FPassing clouds.7 mph94%29.96 "Hg15 mi
11:00 PM
Oct 23
46 °FPassing clouds.3 mph100%29.97 "Hg15 mi
10:00 PM48 °FOvercast.3 mph94%29.99 "Hg15 mi
9:00 PM46 °FPassing clouds.3 mph93%30.01 "Hg15 mi
8:00 PM50 °FPassing clouds.2 mph88%30.01 "Hg15 mi
7:00 PM50 °FPartly sunny.6 mph88%30.01 "Hg15 mi
6:00 PM55 °FPartly sunny.8 mph67%30.01 "Hg15 mi
5:00 PM55 °FPartly sunny.7 mph72%30.01 "Hg15 mi
4:00 PM54 °FPartly sunny.8 mph77%30.03 "Hg15 mi
3:00 PM54 °FOvercast.16 mph72%30.03 "Hg15 mi
2:45 PM55 °FOvercast.18 mph67%30.03 "Hg15 mi
2:00 PM55 °FLight rain. Partly sunny.12 mph67%30.03 "Hg15 mi
1:00 PM55 °FPartly sunny.16 mph59%30.06 "Hg15 mi
12:00 PM54 °FBroken clouds.16 mph63%30.08 "Hg15 mi
11:00 AM54 °FScattered clouds.17 mph58%30.10 "Hg15 mi
10:00 AM45 °FPassing clouds.10 mph71%30.11 "Hg15 mi
9:00 AM43 °FBroken clouds.10 mph76%30.13 "Hg15 mi
8:00 AM41 °FPassing clouds.9 mph81%30.13 "Hg15 mi
7:00 AM41 °FPassing clouds.10 mph81%30.14 "Hg15 mi
6:00 AM43 °FPassing clouds.10 mph76%30.15 "Hg15 mi
5:00 AM43 °FPassing clouds.8 mph76%30.15 "Hg15 mi
4:00 AM43 °FPassing clouds.10 mph76%30.16 "Hg15 mi
3:00 AM43 °FClear.9 mph71%30.17 "Hg15 mi
Weather by CustomWeather, © 2014

See weather overviewHow to use our weather pages